Time,TemperatureF,DewpointF,PressureIn,WindDirection,WindDirectionDegrees,WindSpeedMPH,WindSpeedGustMPH,Humidity,HourlyPrecipIn,Conditions,Clouds,dailyrainin,SoftwareType,DateUTC
2013-05-05 00:02:00,62.0,41.0,-100.00,ENE,64,2.0,8.0,49,0.00,,,-99.99,,2013-05-05 04:02:00,
2013-05-05 00:12:00,62.0,41.0,-100.00,ENE,60,2.0,8.0,47,0.00,,,-99.99,,2013-05-05 04:12:00,
2013-05-05 00:23:00,62.0,43.0,-100.00,ENE,76,2.0,8.0,50,0.00,,,-99.99,,2013-05-05 04:23:00,
2013-05-05 00:33:00,63.0,43.0,-100.00,ENE,67,4.0,8.0,49,0.00,,,-99.99,,2013-05-05 04:33:00,
2013-05-05 00:43:00,63.0,41.0,-100.00,NE,39,4.0,8.0,47,0.00,,,-99.99,,2013-05-05 04:43:00,
2013-05-05 00:52:00,63.0,41.0,-100.00,ENE,57,4.0,8.0,46,0.00,,,-99.99,,2013-05-05 04:52:00,
2013-05-05 01:02:00,63.0,41.0,-100.00,ENE,77,4.0,8.0,46,0.00,,,-99.99,,2013-05-05 05:02:00,
2013-05-05 01:12:00,63.0,41.0,-100.00,ENE,69,3.0,8.0,47,0.00,,,-99.99,,2013-05-05 05:12:00,
2013-05-05 01:22:00,62.0,41.0,-100.00,ENE,69,3.0,8.0,47,0.00,,,-99.99,,2013-05-05 05:22:00,
2013-05-05 01:32:00,63.0,43.0,-100.00,ENE,77,3.0,8.0,49,0.00,,,-99.99,,2013-05-05 05:32:00,
2013-05-05 01:42:00,62.0,43.0,-100.00,ENE,63,4.0,8.0,49,0.00,,,-99.99,,2013-05-05 05:42:00,
2013-05-05 01:51:00,62.0,43.0,-100.00,East,96,4.0,8.0,49,0.00,,,-99.99,,2013-05-05 05:51:00,
2013-05-05 02:01:00,62.0,43.0,-100.00,ENE,74,4.0,8.0,50,0.00,,,-99.99,,2013-05-05 06:01:00,
2013-05-05 02:12:00,61.0,43.0,-100.00,East,90,4.0,8.0,51,0.00,,,-99.99,,2013-05-05 06:12:00,
2013-05-05 02:21:00,61.0,43.0,-100.00,East,90,4.0,8.0,53,0.00,,,-99.99,,2013-05-05 06:21:00,
2013-05-05 02:32:00,60.0,43.0,-100.00,East,87,4.0,8.0,53,0.00,,,-99.99,,2013-05-05 06:32:00,
2013-05-05 02:42:00,60.0,43.0,-100.00,East,81,4.0,8.0,54,0.00,,,-99.99,,2013-05-05 06:42:00,
2013-05-05 02:52:00,60.0,43.0,-100.00,East,96,4.0,8.0,54,0.00,,,-99.99,,2013-05-05 06:52:00,
2013-05-05 03:01:00,60.0,43.0,-100.00,East,98,4.0,8.0,54,0.00,,,-99.99,,2013-05-05 07:01:00,
2013-05-05 03:11:00,60.0,43.0,-100.00,East,101,4.0,8.0,55,0.00,,,-99.99,,2013-05-05 07:11:00,
2013-05-05 03:22:00,60.0,43.0,-100.00,NE,55,4.0,8.0,54,0.00,,,-99.99,,2013-05-05 07:22:00,
2013-05-05 03:32:00,60.0,43.0,-100.00,East,83,4.0,8.0,54,0.00,,,-99.99,,2013-05-05 07:32:00,
2013-05-05 03:42:00,59.0,41.0,-100.00,East,81,4.0,8.0,54,0.00,,,-99.99,,2013-05-05 07:42:00,
2013-05-05 03:52:00,59.0,41.0,-100.00,East,91,2.0,8.0,55,0.00,,,-99.99,,2013-05-05 07:52:00,
2013-05-05 04:02:00,59.0,43.0,-100.00,ENE,62,4.0,8.0,55,0.00,,,-99.99,,2013-05-05 08:02:00,
2013-05-05 04:11:00,59.0,41.0,-100.00,ENE,76,4.0,8.0,55,0.00,,,-99.99,,2013-05-05 08:11:00,
2013-05-05 04:22:00,59.0,43.0,-100.00,East,91,3.0,8.0,56,0.00,,,-99.99,,2013-05-05 08:22:00,
2013-05-05 04:32:00,59.0,43.0,-100.00,East,97,2.0,8.0,56,0.00,,,-99.99,,2013-05-05 08:32:00,
2013-05-05 04:42:00,56.0,41.0,-100.00,East,96,2.0,8.0,58,0.00,,,-99.99,,2013-05-05 08:42:00,
2013-05-05 04:53:00,56.0,41.0,-100.00,NE,50,2.0,8.0,58,0.00,,,-99.99,,2013-05-05 08:53:00,
2013-05-05 05:01:00,56.0,41.0,-100.00,ENE,74,2.0,8.0,58,0.00,,,-99.99,,2013-05-05 09:01:00,
2013-05-05 05:11:00,55.0,39.0,-100.00,ENE,76,2.0,8.0,59,0.00,,,-99.99,,2013-05-05 09:11:00,
2013-05-05 05:21:00,55.0,39.0,-100.00,ENE,64,2.0,8.0,59,0.00,,,-99.99,,2013-05-05 09:21:00,
2013-05-05 05:33:00,55.0,39.0,-100.00,East,88,1.0,8.0,59,0.00,,,-99.99,,2013-05-05 09:33:00,
2013-05-05 05:42:00,55.0,41.0,-100.00,East,94,1.0,8.0,60,0.00,,,-99.99,,2013-05-05 09:42:00,
2013-05-05 05:52:00,54.0,41.0,-100.00,East,80,1.0,8.0,62,0.00,,,-99.99,,2013-05-05 09:52:00,
2013-05-05 06:03:00,53.0,39.0,-100.00,NE,55,1.0,8.0,63,0.00,,,-99.99,,2013-05-05 10:03:00,
2013-05-05 06:12:00,51.0,39.0,-100.00,NE,40,1.0,8.0,67,0.00,,,-99.99,,2013-05-05 10:12:00,
2013-05-05 06:22:00,51.0,39.0,-100.00,NE,46,1.0,8.0,68,0.00,,,-99.99,,2013-05-05 10:22:00,
2013-05-05 06:32:00,51.0,41.0,-100.00,ENE,70,1.0,8.0,69,0.00,,,-99.99,,2013-05-05 10:32:00,
2013-05-05 06:42:00,51.0,41.0,-100.00,East,79,1.0,8.0,69,0.00,,,-99.99,,2013-05-05 10:42:00,
2013-05-05 06:52:00,51.0,39.0,-100.00,East,79,1.0,8.0,69,0.00,,,-99.99,,2013-05-05 10:52:00,
2013-05-05 07:01:00,51.0,41.0,-100.00,NE,53,1.0,8.0,71,0.00,,,-99.99,,2013-05-05 11:01:00,
2013-05-05 07:12:00,51.0,41.0,-100.00,NE,56,2.0,8.0,69,0.00,,,-99.99,,2013-05-05 11:12:00,
2013-05-05 07:22:00,52.0,41.0,-100.00,ENE,66,2.0,8.0,67,0.00,,,-99.99,,2013-05-05 11:22:00,
2013-05-05 07:32:00,53.0,41.0,-100.00,ENE,57,2.0,8.0,64,0.00,,,-99.99,,2013-05-05 11:32:00,
2013-05-05 07:42:00,54.0,41.0,-100.00,ENE,77,2.0,8.0,62,0.00,,,-99.99,,2013-05-05 11:42:00,
2013-05-05 07:52:00,55.0,41.0,-100.00,ENE,67,2.0,8.0,60,0.00,,,-99.99,,2013-05-05 11:52:00,
2013-05-05 08:02:00,56.0,41.0,-100.00,NE,49,3.0,8.0,60,0.00,,,-99.99,,2013-05-05 12:02:00,
2013-05-05 08:11:00,59.0,43.0,-100.00,East,91,2.0,8.0,59,0.00,,,-99.99,,2013-05-05 12:11:00,
2013-05-05 08:21:00,56.0,39.0,-100.00,ENE,70,4.0,8.0,56,0.00,,,-99.99,,2013-05-05 12:21:00,
2013-05-05 08:32:00,58.0,41.0,-100.00,NE,36,2.0,8.0,55,0.00,,,-99.99,,2013-05-05 12:32:00,
2013-05-05 08:42:00,59.0,41.0,-100.00,ENE,70,3.0,8.0,53,0.00,,,-99.99,,2013-05-05 12:42:00,
2013-05-05 08:52:00,59.0,39.0,-100.00,East,91,6.0,8.0,49,0.00,,,-99.99,,2013-05-05 12:52:00,
2013-05-05 09:01:00,60.0,39.0,-100.00,East,88,8.0,10.0,47,0.00,,,-99.99,,2013-05-05 13:01:00,
2013-05-05 09:11:00,61.0,39.0,-100.00,ENE,63,4.0,10.0,45,0.00,,,-99.99,,2013-05-05 13:11:00,
2013-05-05 09:21:00,62.0,39.0,-100.00,East,96,9.0,14.0,44,0.00,,,-99.99,,2013-05-05 13:21:00,
2013-05-05 09:32:00,62.0,37.0,-100.00,NNE,32,7.0,14.0,42,0.00,,,-99.99,,2013-05-05 13:32:00,
2013-05-05 09:42:00,62.0,37.0,-100.00,East,93,8.0,14.0,40,0.00,,,-99.99,,2013-05-05 13:42:00,
2013-05-05 09:52:00,63.0,37.0,-100.00,ENE,74,9.0,14.0,40,0.00,,,-99.99,,2013-05-05 13:52:00,
2013-05-05 10:02:00,64.0,39.0,-100.00,ENE,76,8.0,14.0,41,0.00,,,-99.99,,2013-05-05 14:02:00,
2013-05-05 10:11:00,64.0,37.0,-100.00,NE,52,9.0,14.0,38,0.00,,,-99.99,,2013-05-05 14:11:00,
2013-05-05 10:21:00,64.0,37.0,-100.00,East,83,11.0,14.0,38,0.00,,,-99.99,,2013-05-05 14:21:00,
2013-05-05 10:32:00,66.0,37.0,-100.00,NE,50,10.0,14.0,36,0.00,,,-99.99,,2013-05-05 14:32:00,
2013-05-05 10:42:00,64.0,36.0,-100.00,NE,55,11.0,14.0,36,0.00,,,-99.99,,2013-05-05 14:42:00,
2013-05-05 10:52:00,66.0,37.0,-100.00,East,91,9.0,14.0,36,0.00,,,-99.99,,2013-05-05 14:52:00,
2013-05-05 11:02:00,66.0,36.0,-100.00,East,93,11.0,14.0,33,0.00,,,-99.99,,2013-05-05 15:02:00,
2013-05-05 11:11:00,66.0,34.0,-100.00,ENE,60,12.0,17.0,32,0.00,,,-99.99,,2013-05-05 15:11:00,
2013-05-05 11:21:00,66.0,34.0,-100.00,NE,48,12.0,17.0,32,0.00,,,-99.99,,2013-05-05 15:21:00,
2013-05-05 11:33:00,67.0,32.0,-100.00,NE,40,11.0,17.0,29,0.00,,,-99.99,,2013-05-05 15:33:00,
2013-05-05 11:43:00,67.0,32.0,-100.00,East,86,12.0,17.0,27,0.00,,,-99.99,,2013-05-05 15:43:00,
2013-05-05 11:53:00,68.0,32.0,-100.00,NE,52,12.0,17.0,28,0.00,,,-99.99,,2013-05-05 15:53:00,
2013-05-05 12:03:00,68.0,32.0,-100.00,ENE,77,11.0,17.0,27,0.00,,,-99.99,,2013-05-05 16:03:00,
2013-05-05 12:12:00,69.0,32.0,-100.00,ENE,63,10.0,17.0,25,0.00,,,-99.99,,2013-05-05 16:12:00,
2013-05-05 12:23:00,70.0,32.0,-100.00,NE,36,9.0,17.0,25,0.00,,,-99.99,,2013-05-05 16:23:00,
2013-05-05 12:32:00,69.0,32.0,-100.00,East,83,9.0,17.0,24,0.00,,,-99.99,,2013-05-05 16:32:00,
2013-05-05 12:42:00,71.0,32.0,-100.00,NNE,24,10.0,17.0,24,0.00,,,-99.99,,2013-05-05 16:42:00,
2013-05-05 12:52:00,71.0,32.0,-100.00,NNE,15,8.0,17.0,23,0.00,,,-99.99,,2013-05-05 16:52:00,
2013-05-05 13:02:00,71.0,32.0,-100.00,ENE,59,7.0,17.0,23,0.00,,,-99.99,,2013-05-05 17:02:00,
2013-05-05 13:12:00,72.0,30.0,-100.00,NE,40,8.0,17.0,20,0.00,,,-99.99,,2013-05-05 17:12:00,
2013-05-05 13:23:00,73.0,30.0,-100.00,ENE,72,6.0,17.0,20,0.00,,,-99.99,,2013-05-05 17:23:00,
2013-05-05 13:32:00,71.0,32.0,-100.00,ENE,73,9.0,17.0,22,0.00,,,-99.99,,2013-05-05 17:32:00,
2013-05-05 13:42:00,72.0,30.0,-100.00,ENE,69,9.0,17.0,20,0.00,,,-99.99,,2013-05-05 17:42:00,
2013-05-05 13:52:00,72.0,32.0,-100.00,East,90,7.0,17.0,23,0.00,,,-99.99,,2013-05-05 17:52:00,
2013-05-05 14:01:00,73.0,30.0,-100.00,ENE,74,5.0,17.0,20,0.00,,,-99.99,,2013-05-05 18:01:00,
2013-05-05 14:12:00,74.0,32.0,-100.00,SE,124,10.0,17.0,22,0.00,,,-99.99,,2013-05-05 18:12:00,
2013-05-05 14:21:00,74.0,28.0,-100.00,ENE,69,8.0,17.0,18,0.00,,,-99.99,,2013-05-05 18:21:00,
2013-05-05 14:32:00,74.0,30.0,-100.00,ENE,59,9.0,17.0,19,0.00,,,-99.99,,2013-05-05 18:32:00,
2013-05-05 14:42:00,74.0,27.0,-100.00,ENE,69,6.0,17.0,16,0.00,,,-99.99,,2013-05-05 18:42:00,
2013-05-05 14:52:00,71.0,39.0,-100.00,North,360,6.0,17.0,32,0.00,,,-99.99,,2013-05-05 18:52:00,
2013-05-05 15:01:00,74.0,25.0,-100.00,NE,53,6.0,17.0,15,0.00,,,-99.99,,2013-05-05 19:01:00,
2013-05-05 15:12:00,73.0,30.0,-100.00,NNE,31,6.0,17.0,20,0.00,,,-99.99,,2013-05-05 19:12:00,
2013-05-05 15:21:00,72.0,39.0,-100.00,WNW,297,2.0,17.0,32,0.00,,,-99.99,,2013-05-05 19:21:00,
2013-05-05 15:32:00,69.0,39.0,-100.00,NW,314,7.0,17.0,34,0.00,,,-99.99,,2013-05-05 19:32:00,
2013-05-05 15:42:00,70.0,39.0,-100.00,NW,321,11.0,17.0,33,0.00,,,-99.99,,2013-05-05 19:42:00,
2013-05-05 15:52:00,70.0,37.0,-100.00,NW,317,10.0,17.0,32,0.00,,,-99.99,,2013-05-05 19:52:00,
2013-05-05 16:01:00,70.0,37.0,-100.00,NW,314,9.0,17.0,32,0.00,,,-99.99,,2013-05-05 20:01:00,
2013-05-05 16:11:00,70.0,39.0,-100.00,WNW,293,11.0,17.0,33,0.00,,,-99.99,,2013-05-05 20:11:00,
2013-05-05 16:21:00,71.0,37.0,-100.00,NNW,331,9.0,17.0,31,0.00,,,-99.99,,2013-05-05 20:21:00,
2013-05-05 16:32:00,73.0,39.0,-100.00,North,5,10.0,17.0,31,0.00,,,-99.99,,2013-05-05 20:32:00,
2013-05-05 16:42:00,73.0,41.0,-100.00,NW,316,10.0,17.0,32,0.00,,,-99.99,,2013-05-05 20:42:00,
2013-05-05 16:52:00,73.0,39.0,-100.00,NNW,336,11.0,17.0,32,0.00,,,-99.99,,2013-05-05 20:52:00,
2013-05-05 17:02:00,74.0,41.0,-100.00,North,1,9.0,17.0,31,0.00,,,-99.99,,2013-05-05 21:02:00,
2013-05-05 17:11:00,74.0,41.0,-100.00,North,357,9.0,17.0,32,0.00,,,-99.99,,2013-05-05 21:11:00,
2013-05-05 17:21:00,74.0,39.0,-100.00,North,350,10.0,17.0,29,0.00,,,-99.99,,2013-05-05 21:21:00,
2013-05-05 17:33:00,74.0,41.0,-100.00,NW,314,11.0,17.0,31,0.00,,,-99.99,,2013-05-05 21:33:00,
2013-05-05 17:42:00,74.0,41.0,-100.00,NNE,21,11.0,17.0,31,0.00,,,-99.99,,2013-05-05 21:42:00,
2013-05-05 17:53:00,74.0,41.0,-100.00,NNW,336,8.0,17.0,31,0.00,,,-99.99,,2013-05-05 21:53:00,
2013-05-05 18:02:00,75.0,41.0,-100.00,NNW,328,9.0,17.0,31,0.00,,,-99.99,,2013-05-05 22:02:00,
2013-05-05 18:12:00,74.0,41.0,-100.00,NNW,341,9.0,17.0,31,0.00,,,-99.99,,2013-05-05 22:12:00,
2013-05-05 18:22:00,74.0,41.0,-100.00,NNW,337,9.0,17.0,31,0.00,,,-99.99,,2013-05-05 22:22:00,
2013-05-05 18:33:00,75.0,41.0,-100.00,NNW,348,7.0,17.0,31,0.00,,,-99.99,,2013-05-05 22:33:00,
2013-05-05 18:42:00,74.0,39.0,-100.00,NNW,345,8.0,17.0,29,0.00,,,-99.99,,2013-05-05 22:42:00,
2013-05-05 18:52:00,75.0,41.0,-100.00,NW,314,6.0,17.0,31,0.00,,,-99.99,,2013-05-05 22:52:00,
2013-05-05 19:02:00,75.0,41.0,-100.00,North,358,5.0,17.0,31,0.00,,,-99.99,,2013-05-05 23:02:00,
2013-05-05 19:12:00,75.0,41.0,-100.00,NNW,328,5.0,17.0,31,0.00,,,-99.99,,2013-05-05 23:12:00,
2013-05-05 19:21:00,74.0,41.0,-100.00,NNW,343,5.0,17.0,31,0.00,,,-99.99,,2013-05-05 23:21:00,
2013-05-05 19:32:00,73.0,37.0,-100.00,North,9,5.0,17.0,29,0.00,,,-99.99,,2013-05-05 23:32:00,
2013-05-05 19:42:00,75.0,41.0,-100.00,NNW,333,3.0,17.0,31,0.00,,,-99.99,,2013-05-05 23:42:00,
2013-05-05 19:52:00,75.0,39.0,-100.00,NNW,343,4.0,17.0,29,0.00,,,-99.99,,2013-05-05 23:52:00,
2013-05-05 20:01:00,74.0,39.0,-100.00,North,8,4.0,17.0,29,0.00,,,-99.99,,2013-05-06 00:01:00,
2013-05-05 20:11:00,73.0,39.0,-100.00,NNE,22,4.0,17.0,31,0.00,,,-99.99,,2013-05-06 00:11:00,
2013-05-05 20:21:00,71.0,39.0,-100.00,North,354,4.0,4.0,32,0.00,,,-99.99,,2013-05-06 00:21:00,
2013-05-05 20:32:00,71.0,43.0,-100.00,North,355,3.0,4.0,36,0.00,,,-99.99,,2013-05-06 00:32:00,
2013-05-05 20:42:00,69.0,39.0,-100.00,NNW,345,2.0,4.0,34,0.00,,,-99.99,,2013-05-06 00:42:00,
2013-05-05 20:51:00,68.0,39.0,-100.00,North,4,1.0,4.0,36,0.00,,,-99.99,,2013-05-06 00:51:00,
2013-05-05 21:01:00,68.0,39.0,-100.00,North,5,2.0,4.0,37,0.00,,,-99.99,,2013-05-06 01:01:00,
2013-05-05 21:11:00,67.0,41.0,-100.00,NNW,340,1.0,4.0,40,0.00,,,-99.99,,2013-05-06 01:11:00,
2013-05-05 21:21:00,65.0,41.0,-100.00,North,358,1.0,4.0,42,0.00,,,-99.99,,2013-05-06 01:21:00,
2013-05-05 21:32:00,65.0,41.0,-100.00,North,358,1.0,4.0,42,0.00,,,-99.99,,2013-05-06 01:32:00,
2013-05-05 21:42:00,65.0,41.0,-100.00,NNE,12,1.0,4.0,44,0.00,,,-99.99,,2013-05-06 01:42:00,
2013-05-05 21:52:00,64.0,41.0,-100.00,NNE,19,2.0,4.0,44,0.00,,,-99.99,,2013-05-06 01:52:00,
2013-05-05 22:02:00,64.0,41.0,-100.00,NNE,15,1.0,4.0,45,0.00,,,-99.99,,2013-05-06 02:02:00,
2013-05-05 22:12:00,62.0,41.0,-100.00,NE,43,2.0,4.0,49,0.00,,,-99.99,,2013-05-06 02:12:00,
2013-05-05 22:21:00,62.0,41.0,-100.00,East,79,1.0,4.0,46,0.00,,,-99.99,,2013-05-06 02:21:00,
2013-05-05 22:32:00,62.0,36.0,-100.00,ENE,64,1.0,4.0,37,0.00,,,-99.99,,2013-05-06 02:32:00,
2013-05-05 22:42:00,63.0,30.0,-100.00,ENE,73,1.0,4.0,29,0.00,,,-99.99,,2013-05-06 02:42:00,
2013-05-05 22:51:00,63.0,30.0,-100.00,East,88,2.0,4.0,28,0.00,,,-99.99,,2013-05-06 02:51:00,
2013-05-05 23:02:00,63.0,27.0,-100.00,NE,56,3.0,4.0,25,0.00,,,-99.99,,2013-05-06 03:02:00,
2013-05-05 23:11:00,63.0,27.0,-100.00,ENE,76,2.0,4.0,24,0.00,,,-99.99,,2013-05-06 03:11:00,
2013-05-05 23:22:00,63.0,27.0,-100.00,East,94,4.0,4.0,24,0.00,,,-99.99,,2013-05-06 03:22:00,
2013-05-05 23:33:00,63.0,25.0,-100.00,East,91,2.0,4.0,22,0.00,,,-99.99,,2013-05-06 03:33:00,
2013-05-05 23:42:00,63.0,25.0,-100.00,East,81,3.0,4.0,23,0.00,,,-99.99,,2013-05-06 03:42:00,
2013-05-05 23:52:00,63.0,25.0,-100.00,NE,53,4.0,4.0,23,0.00,,,-99.99,,2013-05-06 03:52:00,